Regional Weather Roundup
Issued by NWS Green Bay, WI

Home | Current Version | Previous Version | Graphics & Text | Print | Product List | Glossary Off
Versions: 1 2 3 4 5 6 7 8 9 10 11 12 13 14 15 16 17 18 19 20 21 22 23 24 25 26 27 28 29 30 31 32 33 34 35 36 37 38 39 40 41 42 43 44 45 46 47 48 49 50

000
ASUS43 KGRB 232300
RWRGRB

NORTH-CENTRAL AND NORTHEAST WISCONSIN REGIONAL WEATHER ROUNDUP
NATIONAL WEATHER SERVICE GREEN BAY WI
600 PM CDT FRI JUN 23 2017

WIZ005-009-010>012-018-019-240000-
NORTH CENTRAL WISCONSIN

CITY           SKY/WX    TMP DP  RH WIND       PRES   REMARKS
IRONWOOD       MOSUNNY   66  49  54 W9        29.72S
MANITOWISH WTR NOT AVBL
ARBOR VITAE    NOT AVBL
EAGLE RIVER    NOT AVBL
LAND O LAKES   CLOUDY    66  45  46 NW14G22   29.72S
RHINELANDER    CLOUDY    65  49  56 NW8G16    29.73R
PHILLIPS       NOT AVBL
ANTIGO         NOT AVBL
TOMAHAWK       NOT AVBL
MERRILL        CLOUDY    69  50  51 NW13G18   29.73S
$$

WIZ013-073-240000-
NORTHEAST WISCONSIN

CITY           SKY/WX    TMP DP  RH WIND       PRES   REMARKS
IRON MOUNTAIN  MOSUNNY   71  45  39 NW16G22   29.66R
MARINETTE      CLOUDY    73  50  44 VRB7      29.65R
$$

WIZ017-030-035>037-045-240000-
CENTRAL WISCONSIN

CITY           SKY/WX    TMP DP  RH WIND       PRES   REMARKS
MEDFORD        NOT AVBL
WAUSAU         CLOUDY    68  49  50 NW15      29.72R
MOSINEE        CLOUDY    66  54  63 W12       29.75R
MARSHFIELD     PTSUNNY   69  52  54 W12G22    29.75R
WISC RAPIDS    CLOUDY    69  53  56 NW10      29.77R
STEVENS POINT  NOT AVBL
WAUPACA        PTSUNNY   74  52  45 W12G20    29.73R
SHAWANO        NOT AVBL
CLINTONVILLE   NOT AVBL
WAUTOMA        CLOUDY    71  54  54 NW15G21   29.75
$$

WIZ038-039-048-051-240000-
FOX VALLEY

CITY           SKY/WX    TMP DP  RH WIND       PRES   REMARKS
NWS GREEN BAY  CLOUDY    73  56  54 W15       29.68R
APPLETON       PTSUNNY   70  48  46 W16       29.70R
OSHKOSH        CLOUDY    71  53  52 NW14      29.70R
FOND DU LAC    PTSUNNY   73  52  47 NW17G25   29.71R
$$

WIZ022-050-052-240000-
EAST CENTRAL WISCONSIN

CITY           SKY/WX    TMP DP  RH WIND       PRES   REMARKS
EPHRAIM        NOT AVBL
WASHINGTON ISL NOT AVBL
STURGEON BAY     N/A     74  53  48 W14         N/A
MANITOWOC      NOT AVBL
SHEBOYGAN      MOSUNNY   73  54  51 NW14G24   29.68R
$$

LMZ563-521-522-541>543-240000-
LAKESHORE

STATION/POSITION TIME  TEMP    WIND        PRES    VSBY  WAVE
                       AIR SEA DIR/SP/G                  HT/PER
                 (UTC) (F)     (DEG/KT/KT) (MB)    (MI)  (FT/S)
SHEBOYGAN LKSHOR 2200   76     290/ 16/ 20 1003.9R
KEWAUNEE LKSHORE 2230   75     290/  8/ 12 1004.0R
NORTHPORT PIER   2240   73     300/  7/ 13 1003.0R
N MID LAKE BUOY  2150   61 56  210/  8/ 12 1002.9R         1
S GREEN BAY BUOY 2230   72     290/ 16/ 17 1004.1R
CHAMBERS ISLAND  2240   72     290/  7/ 12 1003.4R
MENOMINEE LKSHOR 2230          300/  8/ 15 1003.0R
$$




USA.gov is the U.S. government's official web portal to all federal, state and local government web resources and services.